�N����,����,�~����,�C��,���x,�C��,����,���ϕ���,�ő�u�ԕ���,�ő厞����,���˗�,�I�_���x,�n�����x,�ő啗���N��,DTYPE
"20/06/10","00:10",0.0,20.3,80.8,1012.8,315.7,0.8,1.6,332.8,0.00,16.9,23.2,"00:03:12",1
"20/06/10","00:20",0.0,20.3,81.3,1012.6,315.3,1.2,2.7,330.6,0.00,17.0,23.2,"00:15:44",1
"20/06/10","00:30",0.0,20.2,81.8,1012.8,306.1,1.1,1.8,308.4,0.00,17.0,22.8,"00:21:44",1
"20/06/10","00:40",0.0,20.1,82.3,1012.6,305.5,1.2,1.8,332.4,0.00,17.0,22.8,"00:30:16",1
"20/06/10","00:50",0.0,20.1,82.9,1012.6,301.4,1.1,1.8,319.8,0.00,17.1,22.8,"00:42:24",1
"20/06/10","01:00",0.0,20.0,83.3,1012.3,279.3,0.8,1.2,271.7,0.00,17.1,22.8,"00:50:24",1
"20/06/10","01:10",0.0,20.1,83.7,1012.3,303.5,1.1,1.7,331.6,0.00,17.3,22.8,"01:07:20",1
"20/06/10","01:20",0.0,20.2,83.9,1012.6,322.4,1.1,1.8,330.9,0.00,17.4,22.8,"01:15:52",1
"20/06/10","01:30",0.0,20.0,84.2,1012.6,292.2,0.8,1.4,299.1,0.00,17.3,22.6,"01:29:44",1
"20/06/10","01:40",0.0,20.0,84.5,1012.6,304.2,1.1,1.9,332.9,0.00,17.3,22.6,"01:34:56",1
"20/06/10","01:50",0.0,20.0,84.7,1012.1,272.1,0.7,1.1,302.7,0.00,17.4,22.6,"01:40:08",1
"20/06/10","02:00",0.0,20.0,84.9,1012.3,276.0,1.0,1.2,264.7,0.00,17.4,22.7,"01:55:12",1
"20/06/10","02:10",0.0,19.9,85.0,1012.3,279.6,0.7,1.1,255.5,0.00,17.3,22.5,"02:01:20",1
"20/06/10","02:20",0.0,19.8,85.3,1012.3,296.4,1.0,1.3,332.1,0.00,17.3,22.5,"02:19:44",1
"20/06/10","02:30",0.0,19.8,85.6,1011.9,331.5,1.2,1.8,332.5,0.00,17.4,22.3,"02:22:16",1
"20/06/10","02:40",0.0,19.7,85.9,1011.9,298.0,0.8,1.6,330.1,0.00,17.3,22.3,"02:31:12",1
"20/06/10","02:50",0.0,19.4,86.3,1012.1,294.2,0.7,1.4,310.6,0.00,17.1,22.2,"02:40:24",1
"20/06/10","03:00",0.0,19.3,86.5,1012.1,284.7,0.6,1.0,269.5,0.00,17.0,22.4,"02:51:04",1
"20/06/10","03:10",0.0,19.3,86.9,1011.9,290.0,0.8,1.6,317.4,0.00,17.1,22.1,"03:09:20",1
"20/06/10","03:20",0.0,19.4,87.2,1011.9,305.1,1.1,1.4,310.2,0.00,17.3,22.1,"03:14:08",1
"20/06/10","03:30",0.0,19.6,87.5,1011.9,285.3,0.8,1.3,269.5,0.00,17.5,22.0,"03:28:00",1
"20/06/10","03:40",0.0,19.7,87.7,1011.9,318.5,1.0,1.3,319.7,0.00,17.6,22.1,"03:35:12",1
"20/06/10","03:50",0.0,19.8,87.9,1012.1,317.9,1.0,1.4,330.3,0.00,17.8,21.9,"03:49:12",1
"20/06/10","04:00",0.0,20.0,88.0,1011.9,332.7,1.0,1.7,338.0,0.00,18.0,22.1,"03:52:48",1
"20/06/10","04:10",0.0,19.9,88.1,1011.9,296.1,0.8,1.3,336.2,0.00,17.9,22.0,"04:01:28",1
"20/06/10","04:20",0.0,19.9,88.3,1011.9,306.6,1.0,1.2,317.5,0.00,17.9,22.0,"04:14:56",1
"20/06/10","04:30",0.0,20.0,88.4,1011.9,297.8,0.8,1.3,306.4,0.00,18.1,22.1,"04:22:08",1
"20/06/10","04:40",0.0,20.1,88.5,1011.9,293.9,1.1,1.6,307.4,0.00,18.2,22.0,"04:32:08",1
"20/06/10","04:50",0.0,20.2,88.5,1011.6,304.9,1.0,1.7,270.2,0.00,18.3,22.0,"04:49:04",1
"20/06/10","05:00",0.0,20.3,88.4,1012.1,320.9,1.5,2.0,333.1,0.00,18.4,22.2,"04:58:40",1
"20/06/10","05:10",0.0,20.5,88.2,1011.9,302.5,1.1,1.6,330.1,0.00,18.5,21.9,"05:01:28",1
"20/06/10","05:20",0.0,20.5,88.0,1012.1,322.0,1.3,1.9,337.8,0.00,18.5,22.2,"05:16:08",1
"20/06/10","05:30",0.0,20.7,87.7,1011.9,336.9,1.1,1.8,324.4,0.01,18.6,21.9,"05:29:52",1
"20/06/10","05:40",0.0,21.1,87.6,1011.9,287.5,0.8,1.7,314.4,0.02,19.0,22.2,"05:30:16",1
"20/06/10","05:50",0.0,21.6,87.2,1011.4,290.8,0.7,1.0,269.9,0.04,19.4,22.2,"05:48:24",1
"20/06/10","06:00",0.0,22.5,86.9,1011.4,300.3,0.6,1.1,297.2,0.07,20.2,22.2,"05:59:44",1
"20/06/10","06:10",0.0,23.3,85.2,1011.4,339.1,0.6,1.4,8.4,0.08,20.7,22.7,"06:04:08",1
"20/06/10","06:20",0.0,24.2,81.5,1011.4,113.5,0.6,1.8,116.2,0.08,20.9,22.8,"06:19:36",1
"20/06/10","06:30",0.0,24.2,77.5,1011.6,91.5,1.0,2.8,115.6,0.07,20.1,23.0,"06:25:44",1
"20/06/10","06:40",0.0,24.8,74.0,1011.6,112.9,0.8,2.7,119.6,0.09,19.9,23.0,"06:31:36",1
"20/06/10","06:50",0.0,25.1,73.0,1011.2,122.0,1.0,2.0,191.1,0.15,20.0,23.0,"06:41:36",1
"20/06/10","07:00",0.0,24.9,71.3,1011.4,86.5,1.1,2.9,112.9,0.07,19.4,23.2,"06:55:36",1
"20/06/10","07:10",0.0,24.4,72.3,1011.2,109.6,1.5,3.3,112.5,0.06,19.1,23.0,"07:09:28",1
"20/06/10","07:20",0.0,24.9,73.1,1011.4,110.9,1.5,2.7,104.5,0.17,19.8,23.3,"07:15:28",1
"20/06/10","07:30",0.0,25.0,71.4,1011.2,101.6,1.2,3.3,120.3,0.11,19.5,23.6,"07:24:48",1
"20/06/10","07:40",0.0,24.8,71.8,1010.9,106.9,1.7,3.6,117.8,0.11,19.4,23.5,"07:32:48",1
"20/06/10","07:50",0.0,25.1,71.7,1010.7,111.6,1.6,3.3,127.3,0.17,19.7,23.5,"07:43:04",1
"20/06/10","08:00",0.0,25.6,70.5,1010.4,98.9,1.6,3.3,92.8,0.21,19.9,23.8,"07:58:16",1
"20/06/10","08:10",0.0,26.4,69.7,1010.2,124.3,1.7,4.2,154.1,0.34,20.5,24.1,"08:06:08",1
"20/06/10","08:20",0.0,26.7,66.7,1009.5,110.7,2.2,4.3,125.8,0.36,20.0,24.3,"08:11:36",1
"20/06/10","08:30",0.0,26.9,66.0,1009.7,113.3,1.5,3.2,129.9,0.27,20.1,24.6,"08:20:02",1
"20/06/10","08:40",0.0,26.6,66.8,1009.7,124.7,1.5,3.7,99.3,0.22,20.0,24.8,"08:30:24",1
"20/06/10","08:50",0.0,26.7,66.5,1010.0,125.9,2.1,4.9,113.4,0.28,20.0,25.0,"08:40:56",1
"20/06/10","09:00",0.0,26.6,67.0,1009.3,166.0,2.1,3.5,180.3,0.20,20.0,25.1,"08:56:08",1
"20/06/10","09:10",0.0,26.5,66.9,1009.5,143.8,2.1,5.5,139.5,0.18,19.9,25.3,"09:06:32",1
"20/06/10","09:20",0.0,27.3,66.2,1009.3,122.6,1.8,4.9,124.5,0.33,20.5,25.5,"09:10:08",1
"20/06/10","09:30",0.0,27.4,64.3,1009.3,135.4,2.2,4.7,112.1,0.31,20.1,25.8,"09:26:00",1
"20/06/10","09:40",0.0,27.3,64.1,1009.5,168.6,2.1,3.9,179.0,0.27,20.0,25.9,"09:35:44",1
"20/06/10","09:50",0.0,27.6,63.0,1009.5,148.7,1.1,3.2,183.2,0.19,20.0,25.8,"09:49:52",1
"20/06/10","10:00",0.0,27.4,63.3,1009.5,169.7,2.0,4.8,135.1,0.24,19.9,25.8,"09:55:44",1
"20/06/10","10:10",0.0,27.8,62.7,1009.5,168.5,1.3,3.6,115.6,0.19,20.1,26.2,"10:05:52",1
"20/06/10","10:20",0.0,27.9,62.8,1009.3,142.6,2.1,3.9,110.0,0.23,20.2,26.2,"10:14:16",1
"20/06/10","10:30",0.0,28.1,61.9,1009.3,123.4,2.2,4.7,109.4,0.32,20.2,26.2,"10:26:40",1
"20/06/10","10:40",0.0,28.6,59.7,1009.5,164.4,1.8,4.3,203.8,0.32,20.0,26.6,"10:33:52",1
"20/06/10","10:50",0.0,28.2,60.0,1009.7,174.7,1.7,4.4,164.0,0.23,19.7,26.5,"10:46:00",1
"20/06/10","11:00",0.0,29.0,59.8,1009.3,187.0,1.5,3.9,226.4,0.31,20.4,26.8,"10:59:44",1
"20/06/10","11:10",0.0,29.3,57.9,1009.3,112.2,1.8,3.4,156.9,0.36,20.2,27.1,"11:00:24",1
"20/06/10","11:20",0.0,29.0,59.5,1009.3,127.5,1.5,3.9,110.3,0.20,20.4,27.2,"11:12:40",1
"20/06/10","11:30",0.0,28.5,60.1,1009.0,123.1,1.3,2.8,137.0,0.11,20.0,27.0,"11:20:16",1
"20/06/10","11:40",0.0,28.2,61.1,1008.6,134.5,1.1,2.7,118.2,0.07,20.0,27.1,"11:38:56",1
"20/06/10","11:50",0.0,28.0,61.4,1008.1,111.6,1.7,3.4,124.0,0.08,19.9,26.9,"11:45:20",1
"20/06/10","12:00",0.0,27.6,62.8,1007.6,110.9,1.7,3.9,120.9,0.05,19.9,26.8,"11:52:16",1
"20/06/10","12:10",0.0,27.8,63.6,1007.4,59.4,0.8,3.2,110.0,0.06,20.3,26.8,"12:01:44",1
"20/06/10","12:20",0.0,27.7,63.5,1007.1,83.1,1.5,4.1,104.7,0.06,20.2,26.7,"12:19:44",1
"20/06/10","12:30",0.0,27.6,64.3,1006.7,37.0,1.1,2.6,24.1,0.05,20.3,26.7,"12:23:04",1
"20/06/10","12:40",0.0,27.5,64.8,1006.7,89.5,1.7,3.5,117.4,0.04,20.3,26.3,"12:33:20",1
"20/06/10","12:50",0.0,27.5,65.4,1006.4,83.5,1.0,2.5,53.2,0.03,20.5,26.3,"12:47:28",1
"20/06/10","13:00",0.0,27.2,65.7,1006.7,40.2,1.1,3.3,341.5,0.02,20.3,26.3,"12:59:04",1
"20/06/10","13:10",0.0,27.2,66.3,1006.9,109.5,1.6,3.5,124.0,0.02,20.4,26.3,"13:08:00",1
"20/06/10","13:20",0.0,27.1,66.1,1007.1,151.3,2.3,4.9,109.8,0.06,20.3,26.2,"13:14:24",1
"20/06/10","13:30",0.0,26.6,68.8,1007.1,140.2,1.6,3.5,120.5,0.05,20.4,26.0,"13:23:36",1
"20/06/10","13:40",0.0,25.8,72.6,1007.1,139.4,1.8,4.1,149.2,0.09,20.5,25.5,"13:33:04",1
"20/06/10","13:50",0.0,25.5,76.3,1006.9,185.3,1.3,3.3,197.8,0.09,21.1,25.7,"13:45:28",1
"20/06/10","14:00",0.2,25.4,79.2,1006.9,133.4,1.5,3.6,126.3,0.20,21.6,25.5,"13:53:20",1
"20/06/10","14:10",0.0,26.0,79.9,1006.9,38.0,1.0,2.2,333.8,0.31,22.3,25.7,"14:07:52",1
"20/06/10","14:20",0.0,26.4,79.6,1006.7,357.5,1.0,2.4,8.1,0.36,22.6,25.8,"14:19:04",1
"20/06/10","14:30",0.0,26.9,76.9,1006.4,329.9,1.3,2.4,349.2,0.40,22.5,26.0,"14:23:04",1
"20/06/10","14:40",0.0,28.1,73.8,1006.2,255.7,1.0,2.1,236.5,0.47,23.0,26.3,"14:38:40",1
"20/06/10","14:50",0.0,29.0,70.2,1006.4,247.3,1.1,2.7,222.2,0.53,23.1,26.7,"14:40:16",1
"20/06/10","15:00",0.0,29.4,68.1,1006.4,175.6,1.2,2.4,202.6,0.36,22.9,26.7,"14:52:56",1
"20/06/10","15:10",0.0,29.2,65.2,1006.2,77.7,1.2,2.6,107.7,0.34,22.0,27.0,"15:00:32",1
"20/06/10","15:20",0.0,28.7,64.5,1006.2,46.7,1.2,2.8,113.3,0.13,21.4,27.0,"15:19:52",1
"20/06/10","15:30",0.0,28.1,65.8,1005.5,133.3,1.5,3.3,102.9,0.05,21.1,26.8,"15:23:04",1
"20/06/10","15:40",0.0,27.9,66.9,1005.2,131.7,1.7,4.0,116.9,0.02,21.2,26.8,"15:30:08",1
"20/06/10","15:50",0.0,27.5,68.0,1004.8,136.2,1.8,4.9,130.4,0.02,21.1,26.9,"15:49:04",1
"20/06/10","16:00",0.0,27.2,69.2,1005.0,169.4,1.3,3.9,125.7,0.02,21.1,26.8,"15:50:24",1
"20/06/10","16:10",0.0,27.0,70.6,1004.8,142.0,1.2,4.5,101.5,0.01,21.2,26.6,"16:05:20",1
"20/06/10","16:20",0.0,26.7,72.8,1005.2,243.6,0.8,4.2,230.2,0.00,21.5,26.4,"16:15:20",1
"20/06/10","16:30",0.0,25.7,77.5,1005.2,315.9,1.1,2.2,326.3,0.02,21.5,26.2,"16:20:48",1
"20/06/10","16:40",0.0,25.5,81.3,1005.2,3.5,1.3,2.7,358.8,0.11,22.1,26.1,"16:38:16",1
"20/06/10","16:50",0.0,25.3,83.3,1005.0,331.3,1.6,2.9,345.8,0.08,22.3,25.9,"16:46:48",1
"20/06/10","17:00",0.0,25.0,84.7,1005.0,307.1,1.1,3.1,351.0,0.04,22.3,25.8,"16:50:16",1
"20/06/10","17:10",0.0,25.0,85.3,1005.0,318.2,0.8,2.0,344.5,0.01,22.4,25.9,"17:07:52",1
"20/06/10","17:20",0.0,24.7,86.2,1005.0,280.7,1.1,1.9,341.6,0.00,22.3,25.9,"17:11:52",1
"20/06/10","17:30",0.0,24.8,86.8,1004.8,291.5,0.8,2.2,305.2,0.02,22.5,25.7,"17:23:12",1
"20/06/10","17:40",0.0,24.9,87.3,1004.5,329.8,1.3,2.6,341.8,0.02,22.7,25.7,"17:30:56",1
"20/06/10","17:50",0.0,24.8,87.7,1004.8,268.8,0.5,1.0,333.0,0.01,22.7,25.7,"17:47:28",1
"20/06/10","18:00",0.0,24.9,88.1,1004.5,279.7,1.0,1.7,333.5,0.01,22.8,25.4,"17:59:04",1
"20/06/10","18:10",0.0,24.7,88.5,1004.5,284.8,1.0,2.0,344.4,0.00,22.7,25.4,"18:00:24",1
"20/06/10","18:20",0.0,24.6,88.8,1004.8,321.5,1.3,2.8,336.9,0.00,22.7,25.5,"18:19:44",1
"20/06/10","18:30",0.0,24.6,89.1,1004.5,341.2,0.8,2.0,344.7,0.00,22.7,25.2,"18:26:16",1
"20/06/10","18:40",0.0,24.5,89.3,1005.2,295.6,0.6,1.7,342.4,0.00,22.7,25.2,"18:30:24",1
"20/06/10","18:50",0.0,24.4,89.4,1005.0,254.2,0.7,2.1,244.1,0.00,22.6,25.3,"18:47:28",1
"20/06/10","19:00",0.0,23.9,88.2,1005.2,133.8,1.8,4.1,127.0,0.00,21.9,25.0,"18:57:44",1
"20/06/10","19:10",0.0,24.4,85.9,1005.0,154.7,1.6,3.9,117.0,0.00,21.9,25.0,"19:00:24",1
"20/06/10","19:20",0.0,24.8,82.8,1005.2,145.9,1.7,3.3,153.2,0.00,21.7,25.0,"19:14:40",1
"20/06/10","19:30",0.0,25.2,79.1,1004.8,151.3,1.8,4.8,103.2,0.00,21.4,25.0,"19:25:36",1
"20/06/10","19:40",0.0,25.2,77.3,1004.8,168.3,1.3,2.7,147.8,0.00,21.0,24.6,"19:35:52",1
"20/06/10","19:50",0.0,25.2,76.3,1005.0,164.0,1.0,1.9,160.4,0.00,20.8,24.7,"19:45:04",1
"20/06/10","20:00",0.0,25.3,75.8,1004.8,196.7,0.7,2.1,217.7,0.00,20.8,24.6,"19:54:16",1
"20/06/10","20:10",0.0,25.1,77.7,1004.8,329.2,1.2,2.0,310.8,0.00,21.0,24.5,"20:01:04",1
"20/06/10","20:20",0.0,24.8,80.2,1005.0,243.6,0.7,1.3,323.6,0.00,21.2,24.5,"20:11:04",1
"20/06/10","20:30",0.0,24.4,80.5,1004.8,166.7,1.2,2.9,206.7,0.00,20.9,24.6,"20:23:28",1
"20/06/10","20:40",0.0,24.4,80.3,1005.2,142.8,0.7,1.8,114.8,0.00,20.8,24.4,"20:31:52",1
"20/06/10","20:50",0.0,24.4,80.4,1005.2,337.7,0.5,1.1,328.7,0.00,20.8,24.3,"20:42:08",1
"20/06/10","21:00",0.0,24.2,80.8,1005.2,303.6,0.5,0.9,3.6,0.00,20.7,24.4,"20:50:16",1
"20/06/10","21:10",0.0,24.0,81.6,1005.0,312.9,1.0,2.2,358.1,0.00,20.7,24.2,"21:03:36",1
"20/06/10","21:20",0.0,23.7,82.9,1005.2,281.1,1.0,1.7,326.2,0.00,20.7,24.1,"21:19:52",1
"20/06/10","21:30",0.0,23.3,83.9,1005.0,302.2,1.1,2.1,314.2,0.00,20.5,23.9,"21:20:08",1
"20/06/10","21:40",0.0,23.1,84.7,1005.5,292.9,0.7,1.2,269.6,0.00,20.4,24.0,"21:36:32",1
"20/06/10","21:50",0.0,23.1,85.5,1005.5,289.7,1.0,1.4,311.5,0.00,20.6,23.8,"21:43:52",1
"20/06/10","22:00",0.0,23.0,86.7,1005.7,265.7,1.2,1.8,238.5,0.00,20.7,23.7,"21:59:36",1
"20/06/10","22:10",0.0,23.0,87.3,1005.5,264.4,1.2,2.2,234.5,0.00,20.8,23.8,"22:01:28",1
"20/06/10","22:20",0.0,22.8,87.7,1005.5,295.5,0.8,2.0,305.6,0.00,20.7,23.5,"22:11:44",1
"20/06/10","22:30",0.0,22.8,88.3,1005.2,314.3,0.6,1.3,325.2,0.00,20.8,23.7,"22:23:04",1
"20/06/10","22:40",0.0,22.8,88.6,1005.0,293.7,1.0,1.7,310.6,0.00,20.9,24.1,"22:38:40",1
"20/06/10","22:50",0.0,22.6,89.0,1005.2,317.5,1.2,2.4,340.5,0.00,20.7,23.7,"22:42:16",1
"20/06/10","23:00",0.0,22.6,89.3,1005.2,307.3,1.1,1.8,304.0,0.00,20.8,23.7,"22:58:40",1
"20/06/10","23:10",0.0,22.5,89.7,1005.2,303.4,1.1,2.5,340.7,0.00,20.8,23.7,"23:00:48",1
"20/06/10","23:20",0.0,22.5,90.0,1005.0,301.7,1.0,1.7,346.9,0.00,20.8,23.6,"23:10:48",1
"20/06/10","23:30",0.0,22.5,90.2,1005.0,311.0,0.8,1.3,318.6,0.00,20.9,23.7,"23:22:00",1
"20/06/10","23:40",0.0,22.5,90.6,1005.0,324.6,1.6,2.4,326.7,0.00,20.9,23.6,"23:34:00",1
"20/06/10","23:50",0.0,22.5,90.7,1004.5,273.3,0.7,1.3,301.5,0.00,20.9,23.4,"23:40:08",1
"20/06/10","24:00",0.0,22.4,90.9,1004.3,272.3,0.7,1.2,310.1,0.00,20.9,23.3,"23:54:08",1
